Terug naar catalogus

OPS 7350

ActiefMilitairGEO
NORAD 12339·PAYLOAD·🇺🇸 United States

Gelanceerd Mar 16, 1981 vanaf Cape Canaveral Space Force Station

Loading…

TLE

VersSource: Space-Track

Epoch: Sep 14, 2026, 14:19 UTC

1 12339U 81025A   26257.59711443 -.00000142  00000-0  00000-0 0  9998
2 12339   7.9107 304.4626 0020115 292.4224  82.6086  0.98827630 26723

Volg OPS 7350 in realtime met AllMySat

Download on the App Store